TimeEDT,TemperatureF,Dew PointF,Humidity,Sea Level PressureIn,VisibilityMPH,Wind Direction,Wind SpeedMPH,Gust SpeedMPH,PrecipitationIn,Events,Conditions,WindDirDegrees,DateUTC
2:35 AM,68.0,68.0,100,29.78,10.0,SSW,4.6,-,N/A,,Mostly Cloudy,200,2012-10-19 06:35:00
2:55 AM,68.0,68.0,100,29.78,10.0,SSW,4.6,-,N/A,,Mostly Cloudy,210,2012-10-19 06:55:00
3:15 AM,68.0,68.0,100,29.77,10.0,South,4.6,-,N/A,,Overcast,190,2012-10-19 07:15:00
3:35 AM,68.0,68.0,100,29.76,10.0,South,5.8,-,N/A,,Overcast,190,2012-10-19 07:35:00
3:55 AM,68.0,68.0,100,29.75,10.0,South,6.9,-,N/A,,Mostly Cloudy,170,2012-10-19 07:55:00
4:15 AM,68.0,68.0,100,29.75,10.0,Calm,Calm,-,N/A,,Mostly Cloudy,0,2012-10-19 08:15:00
4:35 AM,68.0,68.0,100,29.76,10.0,WSW,4.6,-,N/A,Rain,Light Rain,240,2012-10-19 08:35:00
4:55 AM,68.0,68.0,100,29.78,5.0,West,8.1,-,0.06,Rain-Thunderstorm,Thunderstorms and Rain,260,2012-10-19 08:55:00
5:15 AM,68.0,68.0,100,29.78,4.0,West,8.1,-,0.07,Rain-Thunderstorm,Rain,270,2012-10-19 09:15:00
5:35 AM,66.2,66.2,100,29.78,7.0,Calm,Calm,-,0.08,Rain,Light Rain,0,2012-10-19 09:35:00
5:55 AM,66.2,66.2,100,29.79,7.0,Calm,Calm,-,0.08,,Overcast,0,2012-10-19 09:55:00
6:15 AM,66.2,66.2,100,29.78,7.0,Calm,Calm,-,N/A,Thunderstorm,Overcast,0,2012-10-19 10:15:00
6:35 AM,64.4,64.4,100,29.78,0.5,Calm,Calm,-,N/A,Fog,Fog,0,2012-10-19 10:35:00
6:55 AM,64.4,64.4,100,29.78,0.5,Calm,Calm,-,N/A,Fog,Fog,0,2012-10-19 10:55:00
7:15 AM,64.4,64.4,100,29.76,5.0,Calm,Calm,-,N/A,,Overcast,0,2012-10-19 11:15:00
7:35 AM,64.4,64.4,100,29.78,2.5,SSE,3.5,-,N/A,,Scattered Clouds,160,2012-10-19 11:35:00
7:55 AM,64.4,64.4,100,29.79,3.0,South,4.6,-,N/A,,Scattered Clouds,190,2012-10-19 11:55:00
8:15 AM,64.4,64.4,100,29.79,5.0,SW,3.5,-,N/A,,Scattered Clouds,230,2012-10-19 12:15:00
8:35 AM,66.2,66.2,100,29.80,5.0,West,4.6,-,N/A,,Scattered Clouds,260,2012-10-19 12:35:00
8:55 AM,68.0,68.0,100,29.80,7.0,West,3.5,-,N/A,,Clear,260,2012-10-19 12:55:00
9:15 AM,68.0,64.4,88,29.81,10.0,West,6.9,-,N/A,,Clear,270,2012-10-19 13:15:00
9:35 AM,68.0,60.8,78,29.81,10.0,West,11.5,16.1,N/A,,Clear,280,2012-10-19 13:35:00
9:55 AM,69.8,60.8,73,29.82,10.0,West,6.9,-,N/A,,Clear,270,2012-10-19 13:55:00
10:15 AM,69.8,59.0,68,29.83,10.0,West,8.1,-,N/A,,Clear,270,2012-10-19 14:15:00
10:35 AM,71.6,57.2,60,29.83,10.0,West,6.9,-,N/A,,Clear,280,2012-10-19 14:35:00
10:55 AM,71.6,59.0,64,29.83,10.0,WSW,6.9,-,N/A,,Clear,240,2012-10-19 14:55:00
11:15 AM,71.6,59.0,64,29.83,10.0,West,8.1,-,N/A,,Clear,260,2012-10-19 15:15:00
11:35 AM,71.6,51.8,50,29.84,10.0,WNW,9.2,-,N/A,,Clear,290,2012-10-19 15:35:00
11:55 AM,73.4,51.8,47,29.84,10.0,WNW,11.5,-,N/A,,Clear,290,2012-10-19 15:55:00
12:15 PM,73.4,46.4,38,29.84,10.0,West,9.2,-,N/A,,Clear,270,2012-10-19 16:15:00
12:35 PM,73.4,48.2,41,29.83,10.0,West,6.9,-,N/A,,Clear,280,2012-10-19 16:35:00
12:55 PM,73.4,48.2,41,29.82,10.0,WSW,9.2,-,N/A,,Clear,250,2012-10-19 16:55:00
1:15 PM,75.2,46.4,36,29.82,10.0,WSW,5.8,-,N/A,,Clear,250,2012-10-19 17:15:00
1:35 PM,75.2,46.4,36,29.80,10.0,SSW,5.8,-,N/A,,Clear,210,2012-10-19 17:35:00
1:55 PM,77.0,46.4,34,29.79,10.0,SSW,6.9,-,N/A,,Clear,210,2012-10-19 17:55:00
2:15 PM,77.0,44.6,32,29.78,10.0,SSW,5.8,-,N/A,,Clear,200,2012-10-19 18:15:00
2:35 PM,77.0,46.4,34,29.78,10.0,SW,6.9,-,N/A,,Clear,220,2012-10-19 18:35:00
2:55 PM,77.0,46.4,34,29.77,10.0,SSW,5.8,-,N/A,,Clear,210,2012-10-19 18:55:00
3:15 PM,77.0,44.6,32,29.77,10.0,WSW,10.4,-,N/A,,Clear,240,2012-10-19 19:15:00
3:35 PM,77.0,42.8,29,29.77,10.0,WSW,10.4,-,N/A,,Clear,250,2012-10-19 19:35:00
3:55 PM,77.0,42.8,29,29.76,10.0,WSW,12.7,-,N/A,,Clear,240,2012-10-19 19:55:00
4:15 PM,77.0,44.6,32,29.76,10.0,SW,8.1,-,N/A,,Clear,220,2012-10-19 20:15:00
4:35 PM,77.0,44.6,32,29.75,10.0,SSW,8.1,-,N/A,,Clear,200,2012-10-19 20:35:00
4:55 PM,75.2,44.6,34,29.75,10.0,SW,6.9,-,N/A,,Clear,220,2012-10-19 20:55:00
5:15 PM,75.2,42.8,31,29.75,10.0,SW,6.9,10.4,N/A,,Clear,220,2012-10-19 21:15:00
5:35 PM,73.4,44.6,36,29.75,10.0,SSW,4.6,-,N/A,,Clear,210,2012-10-19 21:35:00
5:55 PM,71.6,42.8,35,29.76,10.0,SSW,8.1,-,N/A,,Clear,210,2012-10-19 21:55:00
6:15 PM,71.6,42.8,35,29.75,10.0,SSW,5.8,-,N/A,,Clear,210,2012-10-19 22:15:00
6:35 PM,66.2,46.4,49,29.76,10.0,SSW,5.8,-,N/A,,Clear,200,2012-10-19 22:35:00
6:55 PM,66.2,46.4,49,29.76,10.0,SSW,5.8,-,N/A,,Clear,200,2012-10-19 22:55:00
7:15 PM,62.6,50.0,63,29.76,10.0,SSW,4.6,-,N/A,,Clear,200,2012-10-19 23:15:00
7:35 PM,60.8,50.0,68,29.77,10.0,South,5.8,-,N/A,,Clear,190,2012-10-19 23:35:00
7:55 PM,60.8,48.2,63,29.78,10.0,South,4.6,-,N/A,,Clear,190,2012-10-19 23:55:00
8:15 PM,59.0,50.0,72,29.78,10.0,South,5.8,-,N/A,,Clear,180,2012-10-20 00:15:00